CST,Max TemperatureF,Mean TemperatureF,Min TemperatureF,Max Dew PointF,MeanDew PointF,Min DewpointF,Max Humidity, Mean Humidity, Min Humidity, Max Sea Level PressureIn, Mean Sea Level PressureIn, Min Sea Level PressureIn, Max VisibilityMiles, Mean VisibilityMiles, Min VisibilityMiles, Max Wind SpeedMPH, Mean Wind SpeedMPH, Max Gust SpeedMPH,PrecipitationIn, CloudCover, Events, WindDirDegrees
2013-11-1,42,38,33,41,36,31,96,89,81,29.83,29.57,29.31,10,9,5,7,3,,0.00,8,Rain,292
2013-11-2,43,33,23,34,29,20,100,82,51,30.16,30.01,29.84,10,10,10,6,1,,0.00,6,,290
2013-11-3,48,34,19,32,27,17,92,71,50,30.21,30.13,30.02,10,10,10,18,5,33,0.00,1,,151
2013-11-4,44,36,28,43,36,27,100,83,65,30.15,29.97,29.86,10,7,0,21,12,31,0.14,6,Fog-Rain,173
2013-11-5,44,32,21,32,27,20,100,87,51,30.26,30.14,30.00,10,3,0,7,0,,0.35,3,Fog-Rain-Snow,10
2013-11-6,36,28,19,31,27,15,93,86,66,30.18,30.03,29.95,10,6,1,6,3,,0.07,5,Snow,310
2013-11-7,35,25,15,25,18,11,89,80,59,30.22,30.20,30.17,10,10,8,7,1,,0.00,3,,270
2013-11-8,39,26,12,33,23,8,92,78,65,30.23,29.97,29.61,10,9,2,16,4,31,0.09,4,Rain-Snow,152
2013-11-9,37,36,35,36,32,27,93,84,70,30.10,29.80,29.58,10,9,5,10,5,25,0.03,8,Rain-Snow,257
2013-11-10,42,36,30,28,26,23,87,68,49,30.31,30.20,30.08,10,10,7,9,5,16,0.00,5,Snow,252
2013-11-11,34,24,12,28,11,5,86,61,41,30.71,30.37,30.06,10,10,4,10,5,23,0.01,4,Snow,341
2013-11-12,26,18,10,9,6,3,81,62,40,30.76,30.66,30.47,10,10,8,8,4,,0.00,2,Snow,219
2013-11-13,46,32,19,30,21,10,79,61,42,30.43,30.06,29.86,10,10,10,14,7,24,0.00,0,,204
2013-11-14,46,35,24,31,28,21,92,78,56,29.85,29.81,29.77,10,9,2,7,2,,0.00,2,,193
2013-11-15,51,37,23,35,29,21,96,79,54,29.87,29.80,29.72,10,7,1,8,2,,0.00,1,,187
2013-11-16,50,44,39,48,39,33,100,86,73,29.69,29.44,29.27,10,7,2,12,6,21,0.45,8,Rain,148
2013-11-17,50,41,30,48,38,24,96,88,75,29.68,29.37,29.28,10,6,1,12,5,29,0.00,7,Rain,234
2013-11-18,30,27,21,23,18,16,78,67,55,30.29,30.04,29.71,10,10,8,14,8,28,0.00,8,Snow,291
2013-11-19,41,26,12,21,17,9,88,64,43,30.34,30.19,30.01,10,10,10,17,5,29,0.00,2,,155
2013-11-20,42,38,34,30,24,18,85,59,40,30.08,30.01,29.97,10,10,10,16,10,25,0.00,8,,170
2013-11-21,35,30,23,34,26,14,100,85,65,30.51,30.23,30.04,10,5,0,9,3,,0.00,8,Fog-Snow,313
2013-11-22,30,21,10,16,9,-1,86,64,27,30.60,30.49,30.41,10,9,2,9,5,21,0.00,5,Snow,257
2013-11-23,15,8,-2,3,-1,-7,80,66,45,30.81,30.70,30.53,10,8,2,9,5,20,0.00,5,Snow,322
2013-11-24,26,12,-2,13,3,-8,80,62,46,30.73,30.36,29.94,10,10,10,18,6,33,0.00,2,,191
2013-11-25,37,32,26,25,20,11,74,64,51,30.02,29.89,29.78,10,10,9,12,9,23,0.00,8,Snow,246
2013-11-26,24,17,10,12,5,-2,85,63,43,30.36,30.18,30.02,10,7,1,12,7,22,0.00,7,Snow,308
2013-11-27,21,14,6,17,12,2,92,80,55,30.38,30.21,30.10,10,5,1,8,2,,0.07,7,Snow,175
2013-11-28,23,12,0,16,11,-7,88,80,72,30.56,30.31,30.13,10,9,2,5,2,,0.00,6,Snow,145
2013-11-29,26,10,-6,18,7,-12,88,74,68,30.61,30.44,30.17,10,10,10,16,3,28,0.00,3,,165
2013-11-30,34,28,21,23,21,18,92,77,64,30.19,30.11,30.06,10,10,8,9,3,,0.00,4,,186